OneWeb SL0645

operational
NORAD ID: 55809 Int'l Des: 2023-029 Owner: ONEWEBN Country: UK Constellation: oneweb
LEOCIRCULARPOLARONEWEB_TYPE

Über OneWeb SL0645

Beschreibung wird geladen...

Live-Position

3D-Globus wird geladen...

Nächste Überflüge

Höhenverlauf

Altitude vs Time

uPlot chart will show altitude changes over time

Zweizeiliger Elementsatz

1 55809U 23029P 25304.66076706 -.00000017 00000-0 -76375-4 0 9997
2 55809 87.9229 350.4534 0002098 111.4152 248.7203 13.18130402128767
Epoch: 31. Okt. 2025 • Age: 21 hours

Aktueller Status

Höhe 1204.2 km
Geschwindigkeit 7.26 km/s
Subsatellitenpunkt 87.64°N, 117.14°W
Startdatum 9. März 2023
Alter 2.6 years
Typ internet

Technische Details

Klassifizierung Payload
Masse 148.00 kg
Trockenmasse 140.00 kg
Gesamtmasse 148.00 kg
Länge 1.30 m
Durchmesser 1.00 m
Spannweite 5.00 m
Form Trapezoid+2 pan
Hersteller ONEWUS
Bus-Typ ARROW
Phasenstatus In Orbit
Besitzer/Staat ONEWEBN/UK

Große Konstellationen

Loading constellations...